Вернуться в каталог

COSMOS 375 DEB

АктивенLEO
NORAD 4628·DEBRIS·🇷🇺 Russia

Запущен Oct 30, 1970 с Baikonur Cosmodrome

Loading…

Ближайшие Пролёты (ближайшие 24 часа)

TLE

СвежийSource: Space-Track

Эпоха: Sep 14, 2026, 08:20 UTC

1 04628U 70091H   26257.34761088  .00003757  00000-0  51025-3 0  9994
2 04628  62.7480 277.7390 0241080 246.1823 111.3817 14.62392322776629

Отслеживайте COSMOS 375 DEB в реальном времени с AllMySat

Download on the App Store